Weather History for Clinton, IA

Change the Weather History Date:

Thursday, January 17, 2013

  Actual Average Record
Temperature  
Mean Temperature 24 °F -  
Max Temperature 33 °F 29 °F 55 °F (1990)
Min Temperature 15 °F 11 °F -20 °F (1977)
Degree Days  
Heating Degree Days 41    
Moisture  
Dew Point 15 °F    
Average Humidity 68    
Maximum Humidity 86    
Minimum Humidity 44    
Precipitation  
Precipitation 0.00 in - - ()
Sea Level Pressure  
Sea Level Pressure 30.36 in    
Wind  
Wind Speed 10 mph (NW)    
Max Wind Speed 15 mph    
Max Gust Speed -    
Visibility 10 miles    
Events      
Averages and records for this station are not official NWS values.
T = Trace of Precipitation, MM = Missing Value Source: NWS Daily Summary

Daily Weather History Graph

Daily Weather History Graph

Search for Another Location

Airport:

Trip Planner

Search our weather history database for the weather conditions in past years. The results will help you decide how hot, cold, wet, or windy it might be!

Date:

Astronomy

Jan. 17, 2013 Rise Set
Actual Time 7:25 AM CST 4:58 PM CST
Civil Twilight 6:54 AM CST 5:28 PM CST
Nautical Twilight 6:20 AM CST 6:03 PM CST
Astronomical Twilight 5:47 AM CST 6:36 PM CST
Moon 10:25 AM CST (1/17) 11:57 PM CST (1/17)
Length of Visible Light 10h 34m
Length of Day
9h 32m
Waxing Crescent, 38% of the Moon is Illuminated
Jan 17
Waxing Crescent
Jan 18
First Quarter
Jan 26
Full
Feb 3
Last Quarter
Feb 10
New

Hourly Weather History & Observations

Time (CST) Temp. Windchill Dew Point Humidity Pressure Visibility Wind Dir Wind Speed Gust Speed Precip Events Conditions
12:15 AM 33.8 °F 27.0 °F 28.4 °F 81% 30.13 in 10.0 mi NW 8.1 mph - N/A   Overcast
12:35 AM 33.8 °F 24.3 °F 26.6 °F 75% 30.14 in 10.0 mi NNW 13.8 mph - N/A   Overcast
12:55 AM 33.8 °F 25.8 °F 26.6 °F 75% 30.15 in 10.0 mi North 10.4 mph - N/A   Overcast
1:15 AM 33.8 °F 27.0 °F 26.6 °F 75% 30.17 in 10.0 mi North 8.1 mph - N/A   Overcast
1:35 AM 32.0 °F 25.6 °F 26.6 °F 80% 30.19 in 10.0 mi NNW 6.9 mph - N/A   Overcast
1:55 AM 30.2 °F 21.9 °F 24.8 °F 80% 30.20 in 10.0 mi NNW 9.2 mph - N/A   Overcast
2:15 AM 30.2 °F 23.4 °F 23.0 °F 75% 30.20 in 10.0 mi NNW 6.9 mph - N/A   Overcast
2:35 AM 28.4 °F 19.1 °F 21.2 °F 74% 30.21 in 10.0 mi NW 10.4 mph - N/A   Mostly Cloudy
2:55 AM 28.4 °F 18.5 °F 23.0 °F 80% 30.23 in 10.0 mi NNW 11.5 mph - N/A   Mostly Cloudy
3:35 AM 26.6 °F 16.2 °F 19.4 °F 74% 30.23 in 10.0 mi NNW 11.5 mph - N/A   Clear
3:55 AM 24.8 °F 14.6 °F 19.4 °F 80% 30.24 in 10.0 mi NNW 10.4 mph - N/A   Clear
4:15 AM 23.0 °F 11.7 °F 17.6 °F 80% 30.25 in 10.0 mi NNW 11.5 mph - N/A   Clear
4:35 AM 23.0 °F 12.4 °F 17.6 °F 80% 30.27 in 10.0 mi NNW 10.4 mph - N/A   Clear
4:55 AM 23.0 °F 12.4 °F 17.6 °F 80% 30.28 in 10.0 mi NNW 10.4 mph - N/A   Clear
5:15 AM 21.2 °F 12.6 °F 15.8 °F 80% 30.29 in 10.0 mi NNW 6.9 mph - N/A   Clear
5:35 AM 21.2 °F 11.7 °F 15.8 °F 80% 30.30 in 10.0 mi NNW 8.1 mph - N/A   Clear
5:55 AM 21.2 °F 10.9 °F 14.0 °F 74% 30.31 in 10.0 mi NNW 9.2 mph - N/A   Clear
6:15 AM 19.4 °F 7.9 °F 12.2 °F 74% 30.32 in 10.0 mi NNW 10.4 mph - N/A   Clear
6:35 AM 19.4 °F 8.6 °F 12.2 °F 74% 30.33 in 10.0 mi NNW 9.2 mph - N/A   Clear
6:55 AM 19.4 °F 7.9 °F 10.4 °F 68% 30.33 in 10.0 mi NNW 10.4 mph - N/A   Clear
7:15 AM 17.6 °F 7.3 °F 10.4 °F 73% 30.34 in 10.0 mi NNW 8.1 mph - N/A   Clear
7:35 AM 17.6 °F 10.7 °F 10.4 °F 73% 30.34 in 10.0 mi NW 4.6 mph - N/A   Clear
7:55 AM 15.8 °F 8.6 °F 10.4 °F 79% 30.35 in 10.0 mi NW 4.6 mph - N/A   Clear
8:15 AM 17.6 °F 8.2 °F 12.2 °F 79% 30.36 in 10.0 mi NW 6.9 mph - N/A   Clear
8:35 AM 19.4 °F 8.6 °F 12.2 °F 74% 30.38 in 10.0 mi NNW 9.2 mph - N/A   Clear
8:55 AM 21.2 °F 11.7 °F 10.4 °F 63% 30.39 in 10.0 mi NNW 8.1 mph - N/A   Clear
9:15 AM 21.2 °F 10.1 °F 10.4 °F 63% 30.40 in 10.0 mi NW 10.4 mph - N/A   Clear
9:35 AM 23.0 °F 11.1 °F 10.4 °F 59% 30.41 in 10.0 mi NW 12.7 mph - N/A   Clear
9:55 AM 23.0 °F 10.6 °F 8.6 °F 54% 30.42 in 10.0 mi NW 13.8 mph - N/A   Clear
10:15 AM 24.8 °F 14.0 °F 8.6 °F 50% 30.42 in 10.0 mi NW 11.5 mph - N/A   Clear
10:35 AM 24.8 °F 14.0 °F 8.6 °F 50% 30.42 in 10.0 mi NW 11.5 mph - N/A   Clear
10:55 AM 26.6 °F 16.2 °F 10.4 °F 51% 30.43 in 10.0 mi NW 11.5 mph - N/A   Clear
11:15 AM 26.6 °F 15.2 °F 10.4 °F 51% 30.42 in 10.0 mi NW 13.8 mph - N/A   Clear
11:35 AM 26.6 °F 15.7 °F 10.4 °F 51% 30.42 in 10.0 mi NW 12.7 mph - N/A   Clear
11:55 AM 28.4 °F 17.0 °F 10.4 °F 47% 30.41 in 10.0 mi NNW 15.0 mph - N/A   Clear
12:15 PM 28.4 °F 17.0 °F 10.4 °F 47% 30.41 in 10.0 mi NNW 15.0 mph - N/A   Clear
12:35 PM 28.4 °F 17.5 °F 10.4 °F 47% 30.40 in 10.0 mi NW 13.8 mph - N/A   Clear
12:55 PM 28.4 °F 17.0 °F 10.4 °F 47% 30.40 in 10.0 mi NW 15.0 mph - N/A   Clear
1:15 PM 30.2 °F 20.8 °F 10.4 °F 44% 30.39 in 10.0 mi NW 11.5 mph - N/A   Clear
1:35 PM 30.2 °F 19.8 °F 12.2 °F 47% 30.39 in 10.0 mi NW 13.8 mph - N/A   Clear
1:55 PM 30.2 °F 20.2 °F 12.2 °F 47% 30.38 in 10.0 mi NW 12.7 mph - N/A   Clear
2:15 PM 30.2 °F 20.8 °F 10.4 °F 44% 30.38 in 10.0 mi NW 11.5 mph - N/A   Clear
2:35 PM 30.2 °F 21.3 °F 12.2 °F 47% 30.38 in 10.0 mi NW 10.4 mph - N/A   Clear
2:55 PM 30.2 °F 20.2 °F 12.2 °F 47% 30.38 in 10.0 mi NW 12.7 mph - N/A   Clear
3:15 PM 30.2 °F 21.9 °F 14.0 °F 51% 30.38 in 10.0 mi WNW 9.2 mph - N/A   Clear
3:35 PM 30.2 °F 21.3 °F 15.8 °F 55% 30.38 in 10.0 mi WNW 10.4 mph - N/A   Clear
3:55 PM 30.2 °F 20.2 °F 15.8 °F 55% 30.38 in 10.0 mi West 12.7 mph - N/A   Clear
4:15 PM 30.2 °F 20.8 °F 15.8 °F 55% 30.38 in 10.0 mi WNW 11.5 mph - N/A   Clear
4:35 PM 28.4 °F 18.5 °F 17.6 °F 64% 30.40 in 10.0 mi WNW 11.5 mph - N/A   Clear
4:55 PM 28.4 °F 19.1 °F 15.8 °F 59% 30.40 in 10.0 mi WNW 10.4 mph - N/A   Clear
5:15 PM 26.6 °F 16.8 °F 15.8 °F 64% 30.41 in 10.0 mi WNW 10.4 mph - N/A   Clear
5:35 PM 26.6 °F 16.8 °F 15.8 °F 64% 30.41 in 10.0 mi WNW 10.4 mph - N/A   Clear
5:55 PM 24.8 °F 14.6 °F 15.8 °F 69% 30.41 in 10.0 mi NW 10.4 mph - N/A   Clear
6:15 PM 24.8 °F 16.1 °F 15.8 °F 69% 30.41 in 10.0 mi NW 8.1 mph - N/A   Scattered Clouds
6:35 PM 23.0 °F 13.1 °F 15.8 °F 74% 30.42 in 10.0 mi NW 9.2 mph - N/A   Partly Cloudy
6:55 PM 21.2 °F 11.7 °F 14.0 °F 74% 30.42 in 10.0 mi WNW 8.1 mph - N/A   Clear
7:15 PM 19.4 °F 8.6 °F 14.0 °F 80% 30.43 in 10.0 mi WNW 9.2 mph - N/A   Clear
7:35 PM 19.4 °F 9.5 °F 14.0 °F 80% 30.43 in 10.0 mi West 8.1 mph - N/A   Clear
7:55 PM 19.4 °F 10.4 °F 12.2 °F 74% 30.43 in 10.0 mi WNW 6.9 mph - N/A   Clear
8:15 PM 19.4 °F 11.5 °F 12.2 °F 74% 30.43 in 10.0 mi WNW 5.8 mph - N/A   Clear
8:55 PM 17.6 °F 7.3 °F 12.2 °F 79% 30.42 in 10.0 mi West 8.1 mph - N/A   Clear
9:15 PM 17.6 °F - 12.2 °F 79% 30.43 in 10.0 mi Calm Calm - N/A   Clear
9:35 PM 19.4 °F - 15.8 °F 86% 30.43 in 10.0 mi Calm Calm - N/A   Clear
9:55 PM 19.4 °F - 14.0 °F 80% 30.42 in 10.0 mi Calm Calm - N/A   Clear
10:15 PM 17.6 °F 9.3 °F 10.4 °F 73% 30.42 in 10.0 mi West 5.8 mph - N/A   Clear
10:35 PM 17.6 °F 8.2 °F 12.2 °F 79% 30.42 in 10.0 mi West 6.9 mph - N/A   Clear
10:55 PM 15.8 °F 8.6 °F 10.4 °F 79% 30.42 in 10.0 mi WSW 4.6 mph - N/A   Clear
11:15 PM 17.6 °F 10.7 °F 12.2 °F 79% 30.42 in 10.0 mi WSW 4.6 mph - N/A   Scattered Clouds
11:35 PM 19.4 °F 12.8 °F 14.0 °F 80% 30.42 in 10.0 mi WSW 4.6 mph - N/A   Mostly Cloudy
11:55 PM 19.4 °F - 14.0 °F 80% 30.43 in 10.0 mi Calm Calm - N/A   Partly Cloudy